QPF
0.00 0.00 0.00 0.00 0.00 0.00 0.00 0.00 0.00 0.00 0.00 0.00 0.00 0.00 0.00 0.00 0.00 0.05 0.01 0.00 0.00 0.00 0.00 0.00 0.00 0.00 0.00 0.00 0.01 0.02 0.03 0.04 0.05 0.05 0.04 0.04 0.04 0.04 0.04 0.04 0.04 0.04 0.04 0.04 0.03 0.01 0.01 0.00 0.00
0.00 0.00 0.00 0.00 0.00 0.00 0.00 0.00 0.00 0.00 0.00 0.00 0.00 0.00 0.00 0.00 0.00 0.00 0.00 0.00 0.00 0.00 0.00 0.00 0.00 0.00 0.00 0.00 0.01 0.02 0.03 0.03 0.04 0.04 0.04 0.04 0.04 0.04 0.03 0.03 0.03 0.04 0.03 0.02 0.01 0.00 0.00 0.00 0.00
0.00 0.00 0.00 0.00 0.00 0.00 0.00 0.00 0.00 0.00 0.00 0.00 0.00 0.00 0.00 0.00 0.00 0.00 0.00 0.00 0.00 0.00 0.00 0.00 0.00 0.00 0.00 0.00 0.00 0.01 0.02 0.03 0.03 0.03 0.03 0.03 0.03 0.03 0.03 0.03 0.03 0.02 0.02 0.01 0.00 0.00 0.00 0.00 0.00
0.00 0.00 0.00 0.00 0.00 0.00 0.00 0.00 0.00 0.00 0.00 0.00 0.00 0.00 0.00 0.00 0.00 0.00 0.00 0.00 0.00 0.00 0.00 0.00 0.00 0.00 0.00 0.00 0.00 0.00 0.01 0.02 0.03 0.04 0.03 0.03 0.02 0.02 0.02 0.02 0.02 0.01 0.01 0.00 0.00 0.00 0.00 0.00 0.00
0.00 0.00 0.00 0.00 0.00 0.00 0.00 0.00 0.00 0.00 0.00 0.00 0.00 0.00 0.00 0.00 0.00 0.00 0.00 0.00 0.00 0.00 0.00 0.00 0.00 0.00 0.00 0.00 0.00 0.01 0.02 0.03 0.03 0.04 0.03 0.02 0.01 0.01 0.01 0.01 0.01 0.01 0.01 0.00 0.00 0.00 0.00 0.00 0.00
0.00 0.00 0.00 0.00 0.00 0.00 0.00 0.00 0.00 0.00 0.00 0.01 0.00 0.01 0.01 0.00 0.00 0.00 0.00 0.00 0.00 0.00 0.00 0.00 0.00 0.00 0.00 0.00 0.01 0.01 0.02 0.02 0.03 0.03 0.02 0.01 0.00 0.00 0.01 0.01 0.01 0.01 0.01 0.00 0.00 0.00 0.00 0.00 0.00
0.00 0.00 0.00 0.00 0.00 0.00 0.00 0.00 0.00 0.00 0.01 0.01 0.01 0.01 0.00 0.00 0.00 0.00 0.00 0.00 0.00 0.00 0.00 0.00 0.00 0.00 0.00 0.00 0.00 0.01 0.01 0.02 0.02 0.02 0.01 0.01 0.00 0.00 0.00 0.01 0.01 0.01 0.01 0.00 0.00 0.00 0.00 0.00 0.00
0.00 0.00 0.00 0.00 0.00 0.00 0.00 0.00 0.00 0.00 0.01 0.01 0.01 0.02 0.01 0.00 0.00 0.00 0.00 0.00 0.00 0.00 0.00 0.00 0.00 0.00 0.00 0.00 0.00 0.01 0.01 0.01 0.01 0.01 0.00 0.00 0.00 0.00 0.00 0.00 0.00 0.00 0.00 0.00 0.00 0.00 0.00 0.00 0.00
0.00 0.00 0.00 0.00 0.00 0.00 0.00 0.00 0.00 0.00 0.01 0.02 0.02 0.02 0.03 0.00 0.00 0.00 0.00 0.00 0.00 0.00 0.00 0.00 0.00 0.00 0.00 0.00 0.00 0.00 0.00 0.00 0.00 0.00 0.00 0.00 0.00 0.01 0.01 0.01 0.00 0.00 0.00 0.00 0.00 0.00 0.00 0.00 0.00
0.00 0.00 0.00 0.00 0.00 0.00 0.00 0.00 0.00 0.00 0.00 0.01 0.04 0.02 0.02 0.00 0.00 0.00 0.00 0.00 0.00 0.00 0.00 0.00 0.00 0.00 0.00 0.00 0.00 0.00 0.00 0.00 0.00 0.00 0.00 0.00 0.03 0.07 0.07 0.06 0.02 0.01 0.00 0.00 0.00 0.00 0.00 0.00 0.00
0.00 0.00 0.00 0.00 0.00 0.00 0.00 0.00 0.00 0.00 0.00 0.00 0.02 0.03 0.01 0.00 0.00 0.00 0.00 0.00 0.00 0.00 0.00 0.00 0.00 0.00 0.00 0.00 0.00 0.00 0.00 0.00 0.00 0.01 0.02 0.04 0.09 0.07 0.07 0.08 0.03 0.01 0.00 0.01 0.01 0.00 0.00 0.00 0.00
0.00 0.00 0.00 0.00 0.00 0.00 0.00 0.00 0.00 0.00 0.00 0.00 0.00 0.01 0.01 0.01 0.00 0.00 0.00 0.00 0.00 0.00 0.00 0.00 0.00 0.00 0.00 0.00 0.00 0.00 0.00 0.01 0.01 0.02 0.02 0.08 0.11 0.10 0.11 0.14 0.08 0.04 0.02 0.03 0.02 0.01 0.00 0.00 0.00
0.00 0.00 0.00 0.00 0.00 0.00 0.00 0.00 0.00 0.00 0.00 0.00 0.01 0.01 0.00 0.00 0.00 0.00 0.00 0.00 0.00 0.00 0.00 0.00 0.00 0.00 0.00 0.00 0.00 0.00 0.00 0.00 0.01 0.02 0.03 0.06 0.08 0.08 0.11 0.15 0.15 0.06 0.04 0.06 0.04 0.01 0.02 0.02 0.00
0.00 0.00 0.00 0.00 0.00 0.00 0.00 0.00 0.00 0.00 0.00 0.01 0.01 0.00 0.00 0.01 0.00 0.00 0.00 0.00 0.00 0.00 0.00 0.00 0.00 0.00 0.00 0.00 0.00 0.00 0.00 0.01 0.01 0.03 0.03 0.03 0.06 0.10 0.11 0.12 0.11 0.07 0.06 0.07 0.08 0.04 0.01 0.01 0.00
0.00 0.00 0.00 0.00 0.00 0.00 0.00 0.00 0.00 0.00 0.00 0.00 0.00 0.00 0.00 0.01 0.01 0.01 0.01 0.00 0.00 0.00 0.00 0.00 0.00 0.00 0.00 0.00 0.00 0.00 0.00 0.01 0.02 0.04 0.04 0.05 0.06 0.12 0.13 0.13 0.12 0.10 0.08 0.05 0.04 0.03 0.02 0.00 0.00
0.00 0.00 0.00 0.00 0.00 0.00 0.00 0.00 0.00 0.00 0.00 0.00 0.00 0.00 0.00 0.02 0.03 0.01 0.01 0.00 0.00 0.00 0.00 0.00 0.00 0.00 0.00 0.00 0.00 0.01 0.01 0.02 0.03 0.05 0.07 0.09 0.10 0.12 0.14 0.13 0.12 0.11 0.10 0.08 0.06 0.05 0.06 0.03 0.02
0.00 0.00 0.00 0.00 0.00 0.00 0.00 0.00 0.00 0.00 0.00 0.00 0.00 0.00 0.00 0.01 0.01 0.01 0.02 0.01 0.00 0.00 0.00 0.00 0.00 0.00 0.00 0.00 0.01 0.02 0.03 0.04 0.06 0.08 0.10 0.14 0.14 0.15 0.14 0.14 0.13 0.13 0.13 0.11 0.08 0.08 0.08 0.08 0.06
0.00 0.00 0.00 0.00 0.00 0.00 0.00 0.00 0.00 0.00 0.00 0.00 0.00 0.00 0.00 0.00 0.01 0.01 0.01 0.01 0.02 0.00 0.00 0.00 0.00 0.01 0.01 0.01 0.01 0.02 0.04 0.06 0.08 0.09 0.12 0.15 0.16 0.15 0.15 0.15 0.15 0.16 0.15 0.14 0.11 0.10 0.09 0.08 0.07
0.00 0.00 0.00 0.00 0.00 0.00 0.00 0.00 0.00 0.00 0.00 0.00 0.00 0.00 0.00 0.00 0.00 0.00 0.00 0.00 0.01 0.01 0.01 0.02 0.02 0.03 0.03 0.03 0.03 0.04 0.08 0.09 0.09 0.11 0.15 0.16 0.14 0.15 0.14 0.14 0.15 0.17 0.16 0.14 0.12 0.11 0.11 0.10 0.07
0.00 0.00 0.00 0.00 0.00 0.00 0.00 0.00 0.00 0.00 0.00 0.00 0.00 0.00 0.00 0.00 0.00 0.00 0.00 0.00 0.00 0.01 0.01 0.03 0.06 0.09 0.10 0.11 0.13 0.14 0.16 0.18 0.19 0.22 0.21 0.17 0.16 0.17 0.18 0.20 0.23 0.23 0.22 0.21 0.17 0.13 0.12 0.11 0.09
0.00 0.00 0.00 0.00 0.00 0.00 0.00 0.00 0.00 0.00 0.00 0.00 0.00 0.00 0.00 0.00 0.00 0.00 0.00 0.00 0.00 0.01 0.01 0.03 0.09 0.16 0.20 0.22 0.19 0.21 0.26 0.28 0.29 0.31 0.29 0.24 0.20 0.18 0.18 0.21 0.28 0.31 0.31 0.29 0.25 0.19 0.15 0.13 0.09
0.00 0.00 0.00 0.00 0.00 0.00 0.00 0.00 0.00 0.00 0.00 0.00 0.00 0.00 0.00 0.00 0.00 0.00 0.00 0.00 0.01 0.01 0.02 0.05 0.12 0.21 0.24 0.24 0.24 0.28 0.28 0.28 0.31 0.30 0.25 0.15 0.11 0.10 0.12 0.16 0.20 0.23 0.26 0.25 0.21 0.17 0.13 0.09 0.05
0.00 0.00 0.00 0.00 0.00 0.00 0.00 0.00 0.00 0.00 0.00 0.00 0.00 0.00 0.00 0.00 0.00 0.00 0.00 0.00 0.01 0.01 0.03 0.07 0.12 0.17 0.19 0.22 0.27 0.26 0.25 0.25 0.22 0.17 0.10 0.06 0.05 0.06 0.08 0.12 0.15 0.16 0.17 0.16 0.13 0.10 0.08 0.06 0.04
0.00 0.00 0.00 0.00 0.00 0.00 0.00 0.00 0.00 0.00 0.00 0.00 0.00 0.00 0.00 0.00 0.00 0.00 0.00 0.01 0.01 0.02 0.04 0.07 0.10 0.12 0.15 0.18 0.23 0.19 0.18 0.18 0.13 0.09 0.05 0.04 0.04 0.04 0.05 0.06 0.08 0.08 0.08 0.07 0.06 0.05 0.04 0.02 0.01
0.00 0.00 0.00 0.00 0.00 0.00 0.00 0.00 0.00 0.00 0.00 0.00 0.00 0.00 0.00 0.00 0.00 0.00 0.01 0.01 0.01 0.02 0.03 0.06 0.08 0.10 0.13 0.14 0.15 0.16 0.18 0.17 0.11 0.06 0.05 0.03 0.02 0.01 0.01 0.01 0.02 0.02 0.03 0.03 0.03 0.02 0.01 0.00 0.00
0.00 0.00 0.00 0.00 0.00 0.00 0.00 0.00 0.01 0.00 0.00 0.00 0.00 0.00 0.00 0.00 0.01 0.01 0.01 0.01 0.01 0.02 0.02 0.03 0.03 0.05 0.07 0.09 0.11 0.13 0.15 0.12 0.07 0.04 0.02 0.01 0.00 0.01 0.01 0.01 0.01 0.01 0.01 0.01 0.01 0.01 0.00 0.00 0.00
0.00 0.00 0.00 0.00 0.00 0.00 0.00 0.01 0.01 0.00 0.00 0.00 0.00 0.00 0.01 0.01 0.01 0.01 0.01 0.01 0.01 0.02 0.02 0.02 0.02 0.04 0.05 0.06 0.07 0.08 0.08 0.05 0.04 0.02 0.01 0.00 0.00 0.00 0.00 0.00 0.00 0.00 0.00 0.00 0.01 0.01 0.01 0.01 0.01
0.00 0.00 0.00 0.00 0.00 0.00 0.00 0.01 0.01 0.01 0.00 0.00 0.01 0.01 0.01 0.01 0.01 0.01 0.02 0.02 0.02 0.02 0.02 0.02 0.02 0.03 0.04 0.04 0.04 0.04 0.03 0.02 0.01 0.01 0.00 0.00 0.00 0.00 0.00 0.00 0.00 0.00 0.00 0.01 0.01 0.01 0.01 0.01 0.01
0.00 0.00 0.00 0.00 0.00 0.00 0.00 0.03 0.04 0.05 0.04 0.02 0.01 0.01 0.01 0.01 0.01 0.01 0.02 0.02 0.02 0.02 0.02 0.02 0.02 0.02 0.02 0.02 0.02 0.01 0.01 0.00 0.00 0.00 0.00 0.01 0.00 0.00 0.00 0.00 0.00 0.00 0.00 0.00 0.00 0.00 0.00 0.00 0.00
0.00 0.00 0.00 0.00 0.00 0.00 0.01 0.05 0.03 0.05 0.08 0.05 0.02 0.01 0.01 0.01 0.01 0.01 0.02 0.02 0.02 0.02 0.02 0.02 0.02 0.01 0.01 0.01 0.01 0.01 0.00 0.00 0.00 0.00 0.00 0.00 0.00 0.00 0.00 0.00 0.00 0.00 0.00 0.00 0.00 0.00 0.00 0.00 0.00
MSLP
1008.81 1009.08 1009.38 1009.58 1009.61 1009.43 1009.06 1008.57 1008.06 1007.62 1007.35 1007.25 1007.32 1007.50 1007.72 1007.92 1008.05 1008.12 1008.17 1008.26 1008.47 1008.81 1009.32 1009.94 1010.63 1011.31 1011.92 1012.41 1012.79 1013.08 1013.33 1013.60 1013.94 1014.35 1014.82 1015.31 1015.77 1016.17 1016.48 1016.69 1016.82 1016.91 1016.98 1017.07 1017.17 1017.28 1017.38 1017.45 1017.46
1009.21 1009.57 1009.86 1009.97 1009.84 1009.45 1008.87 1008.18 1007.52 1007.00 1006.69 1006.60 1006.70 1006.92 1007.17 1007.39 1007.53 1007.60 1007.67 1007.80 1008.05 1008.48 1009.08 1009.81 1010.60 1011.35 1012.02 1012.54 1012.93 1013.22 1013.46 1013.72 1014.05 1014.46 1014.92 1015.41 1015.88 1016.27 1016.57 1016.77 1016.89 1016.99 1017.09 1017.20 1017.34 1017.49 1017.61 1017.68 1017.68
1009.70 1010.13 1010.40 1010.40 1010.10 1009.52 1008.73 1007.89 1007.11 1006.53 1006.21 1006.15 1006.29 1006.54 1006.81 1007.02 1007.14 1007.20 1007.25 1007.39 1007.68 1008.17 1008.85 1009.68 1010.57 1011.43 1012.17 1012.75 1013.17 1013.47 1013.71 1013.96 1014.26 1014.64 1015.07 1015.53 1015.96 1016.32 1016.59 1016.78 1016.93 1017.05 1017.19 1017.36 1017.56 1017.75 1017.90 1017.98 1017.96
1010.23 1010.68 1010.89 1010.77 1010.31 1009.55 1008.62 1007.65 1006.81 1006.21 1005.91 1005.89 1006.08 1006.36 1006.64 1006.84 1006.94 1006.96 1006.99 1007.12 1007.43 1007.97 1008.72 1009.64 1010.62 1011.57 1012.39 1013.03 1013.50 1013.82 1014.07 1014.30 1014.57 1014.91 1015.30 1015.70 1016.08 1016.40 1016.65 1016.84 1017.00 1017.16 1017.36 1017.59 1017.84 1018.09 1018.27 1018.35 1018.32
1010.68 1011.10 1011.23 1010.98 1010.38 1009.48 1008.44 1007.41 1006.56 1005.98 1005.74 1005.78 1006.01 1006.34 1006.63 1006.82 1006.89 1006.89 1006.89 1007.02 1007.34 1007.91 1008.72 1009.70 1010.75 1011.76 1012.65 1013.34 1013.85 1014.20 1014.46 1014.69 1014.94 1015.25 1015.59 1015.95 1016.29 1016.57 1016.81 1016.99 1017.17 1017.37 1017.61 1017.89 1018.19 1018.46 1018.66 1018.74 1018.69
1010.95 1011.31 1011.32 1010.95 1010.22 1009.23 1008.14 1007.10 1006.28 1005.77 1005.59 1005.71 1006.01 1006.37 1006.68 1006.88 1006.94 1006.93 1006.93 1007.06 1007.39 1007.99 1008.82 1009.83 1010.91 1011.96 1012.87 1013.60 1014.13 1014.51 1014.78 1015.02 1015.28 1015.57 1015.90 1016.24 1016.55 1016.82 1017.05 1017.24 1017.42 1017.64 1017.90 1018.20 1018.51 1018.79 1018.98 1019.05 1018.97
1011.00 1011.23 1011.12 1010.63 1009.81 1008.78 1007.69 1006.69 1005.93 1005.50 1005.41 1005.59 1005.94 1006.34 1006.68 1006.90 1006.98 1006.99 1007.03 1007.18 1007.54 1008.14 1008.97 1009.97 1011.04 1012.07 1012.97 1013.69 1014.23 1014.62 1014.92 1015.19 1015.47 1015.79 1016.14 1016.49 1016.81 1017.08 1017.31 1017.50 1017.69 1017.91 1018.16 1018.44 1018.73 1018.97 1019.13 1019.16 1019.06
1010.80 1010.90 1010.66 1010.07 1009.21 1008.18 1007.13 1006.20 1005.53 1005.18 1005.15 1005.38 1005.76 1006.18 1006.55 1006.80 1006.93 1007.00 1007.09 1007.29 1007.69 1008.30 1009.11 1010.07 1011.07 1012.03 1012.87 1013.55 1014.07 1014.47 1014.80 1015.11 1015.45 1015.82 1016.21 1016.61 1016.96 1017.26 1017.50 1017.70 1017.88 1018.07 1018.28 1018.51 1018.74 1018.93 1019.03 1019.02 1018.90
1010.40 1010.36 1010.01 1009.37 1008.50 1007.51 1006.54 1005.70 1005.11 1004.83 1004.83 1005.07 1005.45 1005.87 1006.24 1006.53 1006.73 1006.88 1007.05 1007.33 1007.77 1008.39 1009.17 1010.06 1010.97 1011.82 1012.56 1013.17 1013.65 1014.05 1014.40 1014.77 1015.17 1015.61 1016.08 1016.53 1016.94 1017.27 1017.54 1017.74 1017.90 1018.05 1018.21 1018.37 1018.53 1018.64 1018.68 1018.64 1018.50
1009.87 1009.72 1009.30 1008.64 1007.81 1006.90 1006.02 1005.29 1004.77 1004.51 1004.51 1004.71 1005.03 1005.41 1005.78 1006.09 1006.35 1006.60 1006.88 1007.25 1007.75 1008.38 1009.13 1009.93 1010.72 1011.45 1012.08 1012.60 1013.03 1013.41 1013.78 1014.20 1014.66 1015.18 1015.72 1016.24 1016.70 1017.08 1017.37 1017.58 1017.72 1017.84 1017.94 1018.04 1018.12 1018.17 1018.16 1018.09 1017.96
1009.30 1009.07 1008.62 1007.99 1007.24 1006.44 1005.68 1005.03 1004.56 1004.30 1004.24 1004.34 1004.57 1004.87 1005.19 1005.51 1005.83 1006.17 1006.56 1007.04 1007.60 1008.25 1008.96 1009.68 1010.37 1010.98 1011.50 1011.94 1012.31 1012.68 1013.07 1013.52 1014.04 1014.61 1015.21 1015.78 1016.28 1016.70 1017.01 1017.23 1017.37 1017.46 1017.53 1017.59 1017.63 1017.63 1017.60 1017.53 1017.43
1008.78 1008.50 1008.07 1007.50 1006.86 1006.19 1005.54 1004.98 1004.52 1004.21 1004.05 1004.03 1004.11 1004.29 1004.53 1004.84 1005.20 1005.62 1006.11 1006.68 1007.31 1008.00 1008.69 1009.35 1009.96 1010.48 1010.92 1011.30 1011.64 1011.99 1012.39 1012.87 1013.42 1014.02 1014.64 1015.23 1015.76 1016.19 1016.52 1016.75 1016.91 1017.01 1017.09 1017.14 1017.17 1017.18 1017.16 1017.11 1017.05
1008.35 1008.06 1007.67 1007.20 1006.68 1006.14 1005.60 1005.09 1004.63 1004.25 1003.96 1003.76 1003.68 1003.71 1003.85 1004.11 1004.49 1004.97 1005.55 1006.20 1006.90 1007.62 1008.32 1008.96 1009.53 1010.01 1010.42 1010.77 1011.11 1011.47 1011.89 1012.37 1012.92 1013.51 1014.12 1014.69 1015.21 1015.65 1015.99 1016.25 1016.44 1016.59 1016.70 1016.80 1016.87 1016.93 1016.96 1016.97 1016.97
1008.05 1007.77 1007.42 1007.05 1006.65 1006.22 1005.77 1005.30 1004.82 1004.35 1003.91 1003.54 1003.28 1003.15 1003.18 1003.38 1003.75 1004.27 1004.90 1005.62 1006.38 1007.14 1007.86 1008.52 1009.09 1009.59 1010.02 1010.41 1010.79 1011.19 1011.63 1012.11 1012.64 1013.19 1013.74 1014.27 1014.75 1015.17 1015.52 1015.81 1016.06 1016.28 1016.48 1016.65 1016.82 1016.95 1017.06 1017.14 1017.21
1007.85 1007.58 1007.28 1006.99 1006.68 1006.35 1005.97 1005.52 1004.99 1004.42 1003.84 1003.31 1002.89 1002.62 1002.55 1002.69 1003.04 1003.56 1004.23 1004.98 1005.78 1006.57 1007.33 1008.02 1008.65 1009.21 1009.72 1010.20 1010.66 1011.13 1011.60 1012.09 1012.58 1013.08 1013.56 1014.02 1014.44 1014.82 1015.18 1015.51 1015.83 1016.14 1016.44 1016.73 1017.00 1017.24 1017.44 1017.60 1017.73
1007.74 1007.45 1007.19 1006.95 1006.72 1006.45 1006.10 1005.65 1005.08 1004.42 1003.73 1003.07 1002.52 1002.15 1002.00 1002.09 1002.41 1002.93 1003.60 1004.36 1005.16 1005.97 1006.75 1007.49 1008.19 1008.85 1009.47 1010.07 1010.65 1011.21 1011.74 1012.25 1012.72 1013.16 1013.56 1013.94 1014.30 1014.65 1015.01 1015.38 1015.77 1016.17 1016.58 1016.99 1017.37 1017.71 1017.99 1018.22 1018.40
1007.67 1007.36 1007.12 1006.92 1006.73 1006.49 1006.15 1005.68 1005.07 1004.34 1003.57 1002.83 1002.22 1001.79 1001.61 1001.67 1001.98 1002.48 1003.12 1003.85 1004.63 1005.41 1006.18 1006.95 1007.71 1008.47 1009.22 1009.97 1010.68 1011.36 1011.97 1012.51 1012.97 1013.37 1013.71 1014.02 1014.32 1014.65 1015.00 1015.41 1015.86 1016.35 1016.85 1017.35 1017.82 1018.24 1018.60 1018.88 1019.09
1007.61 1007.29 1007.06 1006.88 1006.71 1006.49 1006.14 1005.65 1005.00 1004.23 1003.43 1002.67 1002.05 1001.63 1001.46 1001.54 1001.85 1002.33 1002.92 1003.59 1004.29 1005.00 1005.72 1006.47 1007.26 1008.09 1008.96 1009.83 1010.69 1011.49 1012.20 1012.80 1013.28 1013.66 1013.96 1014.23 1014.50 1014.80 1015.17 1015.60 1016.09 1016.64 1017.20 1017.76 1018.28 1018.74 1019.13 1019.44 1019.66
1007.55 1007.25 1007.04 1006.88 1006.73 1006.50 1006.15 1005.63 1004.96 1004.19 1003.39 1002.67 1002.10 1001.76 1001.66 1001.79 1002.12 1002.58 1003.12 1003.69 1004.27 1004.86 1005.48 1006.16 1006.92 1007.77 1008.71 1009.68 1010.66 1011.57 1012.38 1013.06 1013.58 1013.98 1014.29 1014.55 1014.81 1015.10 1015.47 1015.92 1016.43 1016.99 1017.57 1018.14 1018.67 1019.14 1019.53 1019.84 1020.06
1007.49 1007.24 1007.09 1006.97 1006.84 1006.62 1006.25 1005.72 1005.05 1004.30 1003.56 1002.92 1002.47 1002.25 1002.27 1002.49 1002.87 1003.33 1003.80 1004.25 1004.68 1005.10 1005.56 1006.10 1006.77 1007.59 1008.53 1009.57 1010.62 1011.63 1012.54 1013.30 1013.89 1014.34 1014.68 1014.96 1015.23 1015.54 1015.91 1016.35 1016.86 1017.40 1017.96 1018.49 1018.98 1019.42 1019.78 1020.07 1020.29
1007.44 1007.29 1007.23 1007.18 1007.09 1006.89 1006.52 1005.99 1005.33 1004.63 1003.98 1003.47 1003.18 1003.13 1003.31 1003.66 1004.11 1004.57 1004.97 1005.30 1005.55 1005.77 1006.03 1006.39 1006.92 1007.64 1008.53 1009.56 1010.65 1011.73 1012.72 1013.56 1014.23 1014.74 1015.14 1015.46 1015.77 1016.09 1016.46 1016.89 1017.36 1017.86 1018.35 1018.81 1019.23 1019.60 1019.92 1020.18 1020.39
1007.40 1007.39 1007.45 1007.50 1007.47 1007.29 1006.94 1006.42 1005.81 1005.18 1004.64 1004.29 1004.19 1004.34 1004.70 1005.20 1005.73 1006.21 1006.57 1006.77 1006.85 1006.86 1006.90 1007.05 1007.39 1007.97 1008.77 1009.76 1010.85 1011.95 1012.98 1013.89 1014.64 1015.22 1015.68 1016.06 1016.40 1016.74 1017.10 1017.50 1017.92 1018.34 1018.75 1019.12 1019.45 1019.74 1020.01 1020.24 1020.44
1007.37 1007.53 1007.72 1007.88 1007.92 1007.78 1007.45 1006.97 1006.41 1005.87 1005.47 1005.29 1005.38 1005.73 1006.29 1006.94 1007.57 1008.09 1008.41 1008.51 1008.43 1008.25 1008.08 1008.02 1008.18 1008.60 1009.29 1010.19 1011.24 1012.34 1013.40 1014.34 1015.14 1015.79 1016.30 1016.72 1017.09 1017.43 1017.79 1018.15 1018.50 1018.85 1019.16 1019.43 1019.67 1019.89 1020.10 1020.31 1020.51
1007.33 1007.65 1007.98 1008.23 1008.33 1008.24 1007.95 1007.51 1007.01 1006.58 1006.32 1006.32 1006.60 1007.15 1007.89 1008.69 1009.42 1009.97 1010.27 1010.30 1010.11 1009.78 1009.44 1009.21 1009.20 1009.48 1010.04 1010.86 1011.84 1012.91 1013.96 1014.92 1015.74 1016.41 1016.96 1017.40 1017.78 1018.13 1018.45 1018.77 1019.07 1019.33 1019.56 1019.75 1019.92 1020.07 1020.24 1020.42 1020.64
1007.29 1007.72 1008.15 1008.47 1008.62 1008.56 1008.31 1007.93 1007.52 1007.20 1007.09 1007.25 1007.71 1008.43 1009.32 1010.25 1011.07 1011.67 1011.97 1011.96 1011.69 1011.26 1010.81 1010.46 1010.34 1010.51 1010.97 1011.70 1012.62 1013.64 1014.65 1015.59 1016.40 1017.07 1017.61 1018.05 1018.42 1018.75 1019.05 1019.33 1019.57 1019.78 1019.94 1020.07 1020.18 1020.29 1020.42 1020.60 1020.82
1007.24 1007.73 1008.20 1008.55 1008.72 1008.69 1008.48 1008.17 1007.85 1007.65 1007.68 1007.99 1008.61 1009.47 1010.48 1011.50 1012.38 1013.01 1013.32 1013.30 1013.01 1012.55 1012.05 1011.66 1011.48 1011.59 1011.99 1012.65 1013.51 1014.46 1015.41 1016.29 1017.06 1017.69 1018.20 1018.61 1018.95 1019.25 1019.53 1019.77 1019.98 1020.15 1020.28 1020.38 1020.45 1020.54 1020.65 1020.81 1021.03
1007.20 1007.68 1008.13 1008.46 1008.63 1008.61 1008.45 1008.21 1007.99 1007.92 1008.08 1008.53 1009.27 1010.24 1011.32 1012.39 1013.31 1013.95 1014.27 1014.27 1013.99 1013.55 1013.07 1012.69 1012.53 1012.63 1013.00 1013.63 1014.42 1015.30 1016.18 1016.99 1017.68 1018.25 1018.69 1019.06 1019.36 1019.63 1019.88 1020.11 1020.31 1020.47 1020.59 1020.67 1020.74 1020.81 1020.91 1021.05 1021.25
1007.21 1007.62 1007.99 1008.27 1008.40 1008.39 1008.28 1008.12 1008.02 1008.08 1008.38 1008.95 1009.78 1010.80 1011.91 1012.99 1013.89 1014.53 1014.86 1014.88 1014.64 1014.26 1013.86 1013.55 1013.44 1013.58 1013.97 1014.57 1015.32 1016.13 1016.92 1017.63 1018.23 1018.71 1019.09 1019.40 1019.66 1019.91 1020.15 1020.37 1020.58 1020.76 1020.89 1020.99 1021.05 1021.12 1021.20 1021.31 1021.47
1007.32 1007.61 1007.88 1008.07 1008.17 1008.16 1008.10 1008.05 1008.08 1008.28 1008.70 1009.36 1010.25 1011.29 1012.39 1013.42 1014.28 1014.88 1015.20 1015.24 1015.06 1014.77 1014.47 1014.27 1014.25 1014.46 1014.88 1015.47 1016.17 1016.91 1017.61 1018.23 1018.73 1019.12 1019.43 1019.68 1019.91 1020.14 1020.39 1020.63 1020.87 1021.08 1021.24 1021.35 1021.43 1021.48 1021.53 1021.61 1021.71
1007.56 1007.73 1007.88 1007.99 1008.05 1008.07 1008.08 1008.14 1008.30 1008.64 1009.17 1009.92 1010.83 1011.86 1012.89 1013.85 1014.63 1015.17 1015.46 1015.51 1015.40 1015.20 1015.02 1014.94 1015.03 1015.31 1015.76 1016.35 1017.01 1017.68 1018.29 1018.80 1019.20 1019.51 1019.75 1019.97 1020.18 1020.41 1020.68 1020.96 1021.23 1021.48 1021.67 1021.81 1021.88 1021.92 1021.93 1021.94 1021.98
Thickness
5803 5813 5820 5817 5803 5798 5804 5833 5849 5841 5834 5842 5843 5837 5830 5819 5804 5790 5823 5836 5829 5818 5808 5801 5796 5792 5788 5785 5782 5778 5775 5771 5768 5765 5763 5761 5759 5757 5755 5753 5751 5749 5748 5747 5746 5745 5745 5745 5745
5800 5812 5812 5804 5787 5783 5803 5834 5840 5837 5839 5846 5846 5841 5830 5821 5826 5823 5827 5830 5825 5815 5806 5800 5793 5789 5786 5782 5779 5775 5772 5768 5765 5763 5760 5758 5756 5754 5752 5750 5748 5746 5744 5743 5742 5742 5742 5742 5742
5794 5804 5793 5790 5784 5785 5797 5828 5837 5842 5849 5847 5840 5840 5829 5820 5826 5825 5828 5830 5824 5814 5806 5796 5791 5787 5783 5780 5776 5773 5770 5766 5763 5760 5758 5756 5754 5752 5749 5747 5745 5743 5741 5740 5739 5738 5738 5739 5739
5789 5792 5788 5779 5780 5805 5819 5833 5842 5839 5843 5847 5839 5829 5830 5835 5834 5832 5832 5831 5823 5814 5804 5794 5789 5785 5781 5777 5774 5770 5768 5764 5761 5759 5756 5754 5752 5749 5746 5744 5742 5740 5739 5737 5736 5736 5735 5736 5736
5783 5775 5765 5765 5782 5810 5833 5845 5846 5835 5833 5838 5837 5822 5818 5836 5841 5835 5832 5831 5823 5815 5804 5793 5788 5783 5779 5775 5772 5769 5766 5763 5760 5757 5754 5751 5749 5746 5744 5742 5740 5738 5736 5735 5733 5733 5732 5732 5733
5768 5768 5752 5757 5782 5812 5834 5850 5846 5837 5834 5836 5834 5822 5817 5836 5834 5832 5833 5831 5826 5816 5803 5792 5786 5782 5778 5774 5771 5767 5764 5761 5758 5755 5752 5749 5747 5744 5741 5739 5737 5735 5734 5732 5730 5729 5729 5729 5730
5759 5757 5754 5766 5783 5804 5830 5851 5842 5835 5831 5830 5833 5821 5821 5831 5834 5836 5834 5832 5828 5818 5804 5793 5787 5781 5777 5773 5770 5767 5763 5760 5757 5754 5750 5747 5745 5742 5740 5737 5735 5733 5731 5729 5727 5726 5726 5727 5727
5771 5760 5755 5766 5777 5795 5828 5842 5845 5839 5834 5840 5837 5820 5816 5829 5837 5837 5833 5831 5827 5818 5806 5797 5790 5784 5778 5773 5769 5766 5762 5758 5755 5752 5748 5745 5743 5741 5738 5736 5734 5731 5729 5727 5725 5724 5723 5724 5725
5772 5751 5750 5766 5780 5799 5828 5833 5842 5852 5839 5837 5833 5830 5832 5837 5838 5832 5826 5825 5821 5816 5807 5801 5794 5788 5782 5777 5771 5765 5761 5757 5753 5750 5747 5744 5743 5741 5738 5736 5733 5730 5728 5726 5724 5722 5722 5722 5723
5766 5749 5760 5782 5798 5811 5828 5832 5838 5839 5828 5824 5821 5829 5837 5837 5832 5826 5821 5818 5815 5812 5808 5804 5799 5792 5787 5783 5773 5767 5763 5758 5754 5752 5747 5745 5744 5743 5740 5736 5732 5728 5726 5724 5723 5722 5721 5721 5722
5768 5762 5776 5792 5807 5816 5822 5831 5840 5830 5823 5828 5823 5823 5832 5833 5830 5828 5825 5822 5819 5815 5812 5809 5803 5797 5793 5787 5777 5772 5767 5762 5757 5754 5749 5746 5745 5743 5739 5734 5730 5727 5725 5723 5722 5721 5721 5722 5723
5769 5775 5783 5792 5808 5810 5812 5822 5827 5828 5832 5847 5848 5841 5835 5831 5830 5831 5829 5826 5823 5817 5814 5813 5807 5800 5797 5791 5783 5777 5773 5766 5761 5756 5751 5746 5744 5741 5737 5732 5729 5727 5726 5724 5722 5721 5723 5724 5724
5768 5774 5787 5795 5800 5805 5807 5809 5815 5823 5840 5848 5849 5842 5837 5837 5838 5838 5838 5832 5827 5819 5815 5815 5810 5802 5798 5793 5787 5781 5776 5770 5765 5759 5751 5747 5743 5739 5737 5730 5727 5726 5725 5722 5720 5720 5721 5720 5719
5775 5778 5783 5790 5793 5796 5795 5801 5808 5818 5838 5840 5836 5835 5835 5839 5841 5839 5836 5831 5828 5822 5816 5816 5810 5804 5797 5791 5786 5781 5777 5771 5767 5760 5753 5746 5742 5738 5735 5730 5725 5723 5721 5718 5716 5714 5715 5713 5713
5778 5772 5775 5783 5787 5791 5790 5786 5803 5824 5836 5833 5835 5838 5836 5839 5839 5837 5836 5835 5831 5825 5820 5815 5809 5803 5795 5789 5783 5780 5775 5770 5764 5758 5752 5745 5739 5734 5729 5725 5721 5717 5715 5713 5711 5708 5707 5706 5705
5765 5757 5754 5776 5785 5789 5781 5774 5812 5833 5834 5834 5839 5841 5838 5834 5837 5842 5839 5837 5834 5827 5820 5815 5810 5802 5793 5787 5781 5777 5773 5768 5761 5755 5749 5742 5737 5732 5725 5719 5714 5710 5708 5705 5702 5699 5696 5694 5693
5747 5743 5750 5769 5789 5789 5783 5783 5816 5838 5836 5833 5837 5839 5838 5837 5840 5842 5837 5834 5833 5828 5821 5813 5808 5800 5792 5784 5778 5773 5769 5764 5758 5752 5746 5739 5733 5729 5722 5715 5709 5704 5700 5697 5693 5688 5686 5682 5679
5737 5747 5755 5766 5790 5788 5784 5792 5814 5835 5835 5832 5835 5838 5836 5834 5835 5841 5840 5836 5832 5827 5821 5812 5805 5797 5789 5781 5773 5767 5762 5757 5752 5746 5740 5735 5729 5724 5719 5712 5705 5699 5692 5687 5683 5678 5675 5671 5668
5750 5758 5763 5779 5801 5789 5785 5793 5808 5826 5827 5830 5831 5833 5834 5835 5841 5841 5840 5834 5828 5823 5816 5809 5800 5793 5785 5776 5767 5760 5753 5748 5742 5737 5732 5727 5722 5717 5712 5705 5698 5692 5686 5680 5675 5670 5665 5661 5659
5741 5745 5763 5787 5805 5792 5783 5788 5805 5819 5821 5824 5826 5827 5827 5828 5830 5831 5834 5831 5825 5818 5813 5805 5797 5789 5781 5773 5766 5758 5750 5741 5735 5729 5723 5718 5714 5710 5705 5699 5691 5684 5678 5672 5667 5664 5658 5654 5651
5736 5740 5756 5774 5791 5787 5774 5771 5789 5808 5820 5821 5822 5820 5818 5817 5815 5819 5822 5821 5818 5813 5809 5804 5794 5785 5776 5767 5758 5749 5739 5731 5724 5718 5714 5709 5706 5702 5697 5692 5685 5679 5673 5667 5662 5657 5652 5647 5644
5724 5745 5753 5761 5763 5760 5759 5743 5772 5792 5801 5807 5808 5806 5803 5804 5805 5805 5805 5805 5806 5806 5805 5799 5789 5779 5768 5760 5750 5742 5733 5724 5717 5711 5705 5700 5695 5692 5687 5683 5677 5671 5665 5660 5654 5649 5646 5643 5638
5730 5747 5748 5749 5747 5746 5756 5745 5765 5790 5786 5792 5790 5786 5786 5786 5784 5783 5784 5785 5788 5792 5792 5787 5779 5768 5759 5751 5742 5734 5725 5717 5709 5703 5696 5690 5684 5680 5676 5672 5667 5661 5657 5651 5646 5641 5638 5635 5630
5737 5738 5741 5741 5736 5719 5739 5739 5751 5780 5788 5781 5770 5765 5766 5767 5765 5765 5766 5768 5768 5771 5771 5767 5760 5751 5744 5738 5731 5724 5715 5707 5699 5692 5685 5678 5672 5668 5664 5660 5656 5651 5646 5642 5637 5633 5629 5624 5620
5728 5715 5706 5704 5705 5716 5745 5740 5752 5763 5772 5764 5753 5748 5749 5749 5747 5746 5746 5746 5746 5748 5748 5745 5741 5733 5728 5722 5716 5710 5704 5697 5689 5681 5673 5667 5660 5656 5652 5648 5644 5640 5635 5630 5626 5622 5618 5613 5609
5719 5716 5700 5698 5710 5729 5748 5744 5754 5757 5755 5751 5744 5738 5734 5730 5728 5726 5726 5726 5726 5727 5727 5725 5721 5716 5711 5706 5701 5696 5690 5684 5676 5669 5662 5655 5649 5644 5640 5636 5632 5627 5623 5619 5614 5610 5606 5601 5596
5717 5717 5727 5717 5720 5721 5745 5755 5733 5743 5739 5736 5730 5724 5717 5713 5710 5709 5708 5708 5708 5708 5708 5707 5704 5700 5695 5691 5686 5681 5675 5668 5661 5654 5648 5642 5636 5631 5627 5623 5618 5614 5610 5606 5602 5597 5593 5588 5584
5728 5727 5719 5709 5698 5702 5732 5738 5729 5726 5724 5720 5713 5707 5701 5698 5695 5693 5692 5692 5692 5692 5691 5690 5688 5684 5681 5677 5672 5665 5659 5654 5648 5642 5635 5629 5623 5618 5614 5609 5604 5600 5596 5592 5588 5585 5580 5575 5571
5717 5716 5716 5718 5720 5707 5709 5717 5738 5725 5717 5707 5697 5691 5686 5683 5680 5678 5678 5678 5678 5677 5676 5674 5672 5669 5665 5660 5655 5650 5645 5639 5634 5628 5621 5615 5610 5605 5600 5595 5591 5587 5583 5578 5574 5570 5566 5562 5557
5722 5717 5715 5699 5703 5715 5711 5705 5733 5724 5711 5698 5684 5676 5672 5670 5667 5666 5666 5665 5665 5663 5662 5660 5657 5653 5649 5645 5640 5635 5630 5624 5618 5612 5606 5601 5596 5591 5586 5582 5577 5573 5569 5563 5559 5555 5550 5546 5540